Location: Aurora Center
(43.5271°N, 98.5894°W)
Time: 19:11:12
(UTC-05:00)

A-11 Canister half - Pass Details

Date: 17 July 2024
Orbit: 1514 x 1685 km, 47.2° (Epoch: 08 July)

Event Time Altitude Azimuth Distance (km) Brightness Sun altitude
Rises 16:25:16 0° 285° (WNW) 4,918 12.1 49.1°
Reaches altitude 10° 16:28:26 10° 287° (WNW) 3,940 11.8 48.6°
Maximum altitude 16:38:40 80° 15° (NNE) 1,710 10.0 46.8°
Drops below altitude 10° 16:48:50 10° 103° (ESE) 3,919 10.9 45.1°
Sets 16:51:58 0° 104° (ESE) 4,891 11.3 44.5°
